COSMOS 1478

导读

COSMOS 1478是苏联(CIS前身)于1983年7月6日08:00发射的“宇宙”系列卫星。该系列是苏联数量最大的军用卫星集群,涵盖侦察、导航、技术试验等多种军事航天任务。作为冷战时期太空军备竞赛的产物,它服役期间承担特定军事任务,完成使命后成为轨道上的废弃航天器。长期在轨运行后,其轨道逐渐衰减,是地球轨道太空垃圾的组成部分,反映了早期航天活动留下的环境遗留问题。

基本信息
目录编号:
14176
目录名称:
COSMOS 1478
国际标识:
1983-069F
轨道中心:
EARTH
卫星名称:
COSMOS 1478
卫星全名:
--
卫星状态:
在轨 (已飞行15775 天)
发射日期:
1983-07-06 UTC
国别 :
俄罗斯(独联体) (CIS)
星等 :
--
该卫星已列入 空间交会检测服务 Space Conjunction Data Service (SCDS) ,当前飞行风险评估等级: 无高风险
轨道信息
数据来源 国际轨道数据
星历时间: 2026-09-12T19:31:18+0800
19小时前
查看轨道信息
半长轴: 7849.899km
偏心率: 0.0011724
轨道倾角: 74.023°
近地点辐角 33.069°
升交点赤经 284.050°
平近点角 76.284°
近地点: 1462.558km
远地点: 1480.966km
周期: 115.360分钟
每日圈数: 12.482648
详细信息
使用方式:
暂无
2D轨道图
3D轨道图
轨道高度分析图
轨道倾角分析图
轨道综合分析图
查看轨道综合分析图
与全量物体交会距离演化趋势
与全量物体交会风险概率演化趋势